Time,TemperatureF,DewpointF,PressureIn,WindDirection,WindDirectionDegrees,WindSpeedMPH,WindSpeedGustMPH,Humidity,HourlyPrecipIn,Conditions,Clouds,dailyrainin,SoftwareType,DateUTC
2013-01-30 00:01:00,39.0,38.0,30.48,WSW,245,0.0,-999.0,97,-99.99,,,-99.99,,2013-01-30 08:01:00,
2013-01-30 00:11:00,39.0,38.0,30.48,WSW,245,0.0,-999.0,97,-99.99,,,-99.99,,2013-01-30 08:11:00,
2013-01-30 00:21:00,40.0,39.0,30.48,WSW,245,0.0,-999.0,97,-99.99,,,-99.99,,2013-01-30 08:21:00,
2013-01-30 00:31:00,40.0,39.0,30.48,WSW,245,0.0,-999.0,97,-99.99,,,-99.99,,2013-01-30 08:31:00,
2013-01-30 00:41:00,40.0,39.0,30.48,WSW,245,0.0,-999.0,97,-99.99,,,-99.99,,2013-01-30 08:41:00,
2013-01-30 00:52:00,40.0,39.0,30.47,WSW,244,0.0,-999.0,97,-99.99,,,-99.99,,2013-01-30 08:52:00,
2013-01-30 01:01:00,40.0,39.0,30.47,SSE,155,0.0,-999.0,97,-99.99,,,-99.99,,2013-01-30 09:01:00,
2013-01-30 01:11:00,40.0,39.0,30.47,SSE,155,0.0,-999.0,97,-99.99,,,-99.99,,2013-01-30 09:11:00,
2013-01-30 01:21:00,40.0,39.0,30.47,SSE,155,0.0,-999.0,97,-99.99,,,-99.99,,2013-01-30 09:21:00,
2013-01-30 01:31:00,41.0,40.0,30.48,West,271,0.0,-999.0,97,-99.99,,,-99.99,,2013-01-30 09:31:00,
2013-01-30 01:41:00,41.0,40.0,30.48,West,271,0.0,-999.0,97,-99.99,,,-99.99,,2013-01-30 09:41:00,
2013-01-30 01:52:00,41.0,40.0,30.48,SSW,196,0.0,-999.0,97,-99.99,,,-99.99,,2013-01-30 09:52:00,
2013-01-30 02:01:00,41.0,40.0,30.48,SSW,198,0.0,-999.0,97,-99.99,,,-99.99,,2013-01-30 10:01:00,
2013-01-30 02:11:00,41.0,40.0,30.48,SSW,198,0.0,-999.0,97,-99.99,,,-99.99,,2013-01-30 10:11:00,
2013-01-30 02:21:00,41.0,40.0,30.47,SW,215,3.0,-999.0,97,-99.99,,,-99.99,,2013-01-30 10:21:00,
2013-01-30 02:31:00,42.0,41.0,30.47,South,187,4.0,-999.0,97,-99.99,,,-99.99,,2013-01-30 10:31:00,
2013-01-30 02:41:00,42.0,41.0,30.47,South,187,4.0,-999.0,97,-99.99,,,-99.99,,2013-01-30 10:41:00,
2013-01-30 02:52:00,42.0,41.0,30.47,SSE,163,3.0,-999.0,96,-99.99,,,-99.99,,2013-01-30 10:52:00,
2013-01-30 03:01:00,42.0,41.0,30.47,South,174,4.0,-999.0,96,-99.99,,,-99.99,,2013-01-30 11:01:00,
2013-01-30 03:11:00,42.0,41.0,30.47,South,174,4.0,-999.0,96,-99.99,,,-99.99,,2013-01-30 11:11:00,
2013-01-30 03:21:00,42.0,41.0,30.47,SSW,196,3.0,-999.0,96,-99.99,,,-99.99,,2013-01-30 11:21:00,
2013-01-30 03:32:00,42.0,41.0,30.47,SSE,154,3.0,-999.0,95,-99.99,,,-99.99,,2013-01-30 11:32:00,
2013-01-30 03:41:00,42.0,41.0,30.47,SSE,154,3.0,-999.0,95,-99.99,,,-99.99,,2013-01-30 11:41:00,
2013-01-30 03:52:00,42.0,41.0,30.47,South,169,2.0,-999.0,95,-99.99,,,-99.99,,2013-01-30 11:52:00,
2013-01-30 04:01:00,42.0,40.0,30.47,South,175,2.0,-999.0,94,-99.99,,,-99.99,,2013-01-30 12:01:00,
2013-01-30 04:12:00,42.0,40.0,30.47,South,175,2.0,-999.0,94,-99.99,,,-99.99,,2013-01-30 12:12:00,
2013-01-30 04:22:00,42.0,40.0,30.47,South,172,3.0,-999.0,94,-99.99,,,-99.99,,2013-01-30 12:22:00,
2013-01-30 04:32:00,42.0,40.0,30.47,South,186,2.0,-999.0,94,-99.99,,,-99.99,,2013-01-30 12:32:00,
2013-01-30 04:42:00,42.0,40.0,30.47,South,186,2.0,-999.0,94,-99.99,,,-99.99,,2013-01-30 12:42:00,
2013-01-30 05:02:00,42.0,40.0,30.47,SSE,161,2.0,-999.0,94,-99.99,,,-99.99,,2013-01-30 13:02:00,
2013-01-30 05:12:00,42.0,40.0,30.47,SSE,161,2.0,-999.0,94,-99.99,,,-99.99,,2013-01-30 13:12:00,
2013-01-30 05:22:00,42.0,40.0,30.47,South,178,3.0,-999.0,94,-99.99,,,-99.99,,2013-01-30 13:22:00,
2013-01-30 05:31:00,42.0,40.0,30.47,South,178,3.0,-999.0,94,-99.99,,,-99.99,,2013-01-30 13:31:00,
2013-01-30 05:42:00,42.0,40.0,30.47,South,178,3.0,-999.0,94,-99.99,,,-99.99,,2013-01-30 13:42:00,
2013-01-30 05:52:00,42.0,40.0,30.46,South,181,2.0,-999.0,94,-99.99,,,-99.99,,2013-01-30 13:52:00,
2013-01-30 06:02:00,42.0,40.0,30.47,SSE,160,2.0,-999.0,94,-99.99,,,-99.99,,2013-01-30 14:02:00,
2013-01-30 06:11:00,42.0,40.0,30.47,SSE,160,2.0,-999.0,94,-99.99,,,-99.99,,2013-01-30 14:11:00,
2013-01-30 06:21:00,42.0,40.0,30.47,South,186,1.0,-999.0,94,-99.99,,,-99.99,,2013-01-30 14:21:00,
2013-01-30 06:31:00,43.0,41.0,30.47,SSE,167,4.0,-999.0,93,-99.99,,,-99.99,,2013-01-30 14:31:00,
2013-01-30 06:32:00,42.0,40.0,30.46,SSE,165,3.0,-999.0,94,-99.99,,,-99.99,,2013-01-30 14:32:00,
2013-01-30 06:41:00,42.0,40.0,30.46,SSE,165,3.0,-999.0,94,-99.99,,,-99.99,,2013-01-30 14:41:00,
2013-01-30 06:52:00,43.0,41.0,30.47,SSE,167,4.0,-999.0,93,-99.99,,,-99.99,,2013-01-30 14:52:00,
2013-01-30 07:02:00,43.0,41.0,30.47,SSE,167,4.0,-999.0,93,-99.99,,,-99.99,,2013-01-30 15:02:00,
2013-01-30 07:11:00,43.0,41.0,30.47,SSE,167,4.0,-999.0,93,-99.99,,,-99.99,,2013-01-30 15:11:00,
2013-01-30 07:22:00,43.0,41.0,30.47,SSE,167,4.0,-999.0,93,-99.99,,,-99.99,,2013-01-30 15:22:00,
2013-01-30 09:53:00,44.0,42.0,30.48,SSW,205,5.0,-999.0,94,-99.99,,,-99.99,,2013-01-30 17:53:00,
2013-01-30 10:02:00,44.0,42.0,30.48,SSE,149,3.0,-999.0,94,-99.99,,,-99.99,,2013-01-30 18:02:00,
2013-01-30 10:12:00,44.0,42.0,30.48,SSE,149,3.0,-999.0,94,-99.99,,,-99.99,,2013-01-30 18:12:00,
2013-01-30 10:22:00,45.0,43.0,30.49,South,182,5.0,-999.0,93,-99.99,,,-99.99,,2013-01-30 18:22:00,
2013-01-30 10:32:00,45.0,43.0,30.49,South,182,5.0,-999.0,93,-99.99,,,-99.99,,2013-01-30 18:32:00,
2013-01-30 10:42:00,45.0,43.0,30.49,South,182,5.0,-999.0,93,-99.99,,,-99.99,,2013-01-30 18:42:00,
2013-01-30 10:52:00,45.0,43.0,30.49,SSE,163,5.0,-999.0,91,-99.99,,,-99.99,,2013-01-30 18:52:00,
2013-01-30 11:02:00,45.0,43.0,30.49,SSE,156,5.0,-999.0,91,-99.99,,,-99.99,,2013-01-30 19:02:00,
2013-01-30 11:12:00,45.0,43.0,30.49,SSE,156,5.0,-999.0,91,-99.99,,,-99.99,,2013-01-30 19:12:00,
2013-01-30 11:21:00,46.0,44.0,30.48,SSE,156,4.0,-999.0,91,-99.99,,,-99.99,,2013-01-30 19:21:00,
2013-01-30 11:32:00,46.0,44.0,30.48,SSE,156,4.0,-999.0,91,-99.99,,,-99.99,,2013-01-30 19:32:00,
2013-01-30 11:42:00,46.0,44.0,30.48,SSE,156,4.0,-999.0,91,-99.99,,,-99.99,,2013-01-30 19:42:00,
2013-01-30 11:52:00,47.0,45.0,30.48,South,180,3.0,-999.0,91,-99.99,,,-99.99,,2013-01-30 19:52:00,
2013-01-30 12:02:00,47.0,45.0,30.48,SE,139,5.0,-999.0,91,-99.99,,,-99.99,,2013-01-30 20:02:00,
2013-01-30 12:11:00,47.0,45.0,30.48,SE,139,5.0,-999.0,91,-99.99,,,-99.99,,2013-01-30 20:11:00,
2013-01-30 12:21:00,47.0,45.0,30.48,SE,139,5.0,-999.0,91,-99.99,,,-99.99,,2013-01-30 20:21:00,
2013-01-30 12:32:00,48.0,46.0,30.47,South,187,3.0,-999.0,92,-99.99,,,-99.99,,2013-01-30 20:32:00,
2013-01-30 12:41:00,48.0,46.0,30.47,South,187,3.0,-999.0,92,-99.99,,,-99.99,,2013-01-30 20:41:00,
2013-01-30 12:53:00,49.0,46.0,30.47,South,181,2.0,-999.0,91,-99.99,,,-99.99,,2013-01-30 20:53:00,
2013-01-30 13:02:00,49.0,46.0,30.46,South,191,1.0,-999.0,91,-99.99,,,-99.99,,2013-01-30 21:02:00,
2013-01-30 13:11:00,49.0,46.0,30.46,South,191,1.0,-999.0,91,-99.99,,,-99.99,,2013-01-30 21:11:00,
2013-01-30 13:22:00,50.0,47.0,30.46,SE,144,2.0,-999.0,90,-99.99,,,-99.99,,2013-01-30 21:22:00,
2013-01-30 13:31:00,50.0,47.0,30.46,South,189,3.0,-999.0,91,-99.99,,,-99.99,,2013-01-30 21:31:00,
2013-01-30 13:42:00,50.0,47.0,30.46,South,189,3.0,-999.0,91,-99.99,,,-99.99,,2013-01-30 21:42:00,
2013-01-30 13:52:00,50.0,48.0,30.46,SW,225,1.0,-999.0,92,-99.99,,,-99.99,,2013-01-30 21:52:00,
2013-01-30 14:01:00,50.0,48.0,30.46,South,186,2.0,-999.0,92,-99.99,,,-99.99,,2013-01-30 22:01:00,
2013-01-30 14:11:00,50.0,48.0,30.46,South,186,2.0,-999.0,92,-99.99,,,-99.99,,2013-01-30 22:11:00,
2013-01-30 14:21:00,50.0,48.0,30.45,SSW,213,1.0,-999.0,93,-99.99,,,-99.99,,2013-01-30 22:21:00,
2013-01-30 14:31:00,50.0,48.0,30.45,SSE,166,1.0,-999.0,94,-99.99,,,-99.99,,2013-01-30 22:31:00,
2013-01-30 14:41:00,50.0,48.0,30.45,SSE,166,1.0,-999.0,94,-99.99,,,-99.99,,2013-01-30 22:41:00,
2013-01-30 14:52:00,50.0,48.0,30.45,SSW,200,2.0,-999.0,94,-99.99,,,-99.99,,2013-01-30 22:52:00,
2013-01-30 15:01:00,50.0,48.0,30.45,SSW,203,3.0,-999.0,94,-99.99,,,-99.99,,2013-01-30 23:01:00,
2013-01-30 15:11:00,50.0,48.0,30.45,SSW,203,3.0,-999.0,94,-99.99,,,-99.99,,2013-01-30 23:11:00,
2013-01-30 15:21:00,50.0,48.0,30.44,SSW,200,3.0,-999.0,92,-99.99,,,-99.99,,2013-01-30 23:21:00,
2013-01-30 15:32:00,50.0,48.0,30.44,SE,136,3.0,-999.0,93,-99.99,,,-99.99,,2013-01-30 23:32:00,
2013-01-30 15:42:00,50.0,48.0,30.44,SE,136,3.0,-999.0,93,-99.99,,,-99.99,,2013-01-30 23:42:00,
2013-01-30 15:52:00,50.0,48.0,30.45,South,187,1.0,-999.0,92,-99.99,,,-99.99,,2013-01-30 23:52:00,
2013-01-30 16:01:00,50.0,48.0,30.45,WSW,255,1.0,-999.0,92,-99.99,,,-99.99,,2013-01-31 00:01:00,
2013-01-30 16:11:00,50.0,48.0,30.45,WSW,255,1.0,-999.0,92,-99.99,,,-99.99,,2013-01-31 00:11:00,
2013-01-30 16:21:00,50.0,48.0,30.45,NW,321,1.0,-999.0,92,-99.99,,,-99.99,,2013-01-31 00:21:00,
2013-01-30 16:31:00,50.0,48.0,30.45,NW,321,1.0,-999.0,92,-99.99,,,-99.99,,2013-01-31 00:31:00,
2013-01-30 16:42:00,50.0,48.0,30.45,NW,321,1.0,-999.0,92,-99.99,,,-99.99,,2013-01-31 00:42:00,
2013-01-30 16:52:00,50.0,47.0,30.45,WNW,301,0.0,-999.0,90,-99.99,,,-99.99,,2013-01-31 00:52:00,
2013-01-30 17:02:00,50.0,47.0,30.45,West,269,0.0,-999.0,90,-99.99,,,-99.99,,2013-01-31 01:02:00,
2013-01-30 17:11:00,50.0,47.0,30.45,West,269,0.0,-999.0,90,-99.99,,,-99.99,,2013-01-31 01:11:00,
2013-01-30 17:21:00,50.0,47.0,30.45,SSW,211,1.0,-999.0,89,-99.99,,,-99.99,,2013-01-31 01:21:00,
2013-01-30 17:31:00,50.0,47.0,30.45,SW,224,2.0,-999.0,88,-99.99,,,-99.99,,2013-01-31 01:31:00,
2013-01-30 17:41:00,50.0,47.0,30.45,SW,224,2.0,-999.0,88,-99.99,,,-99.99,,2013-01-31 01:41:00,
2013-01-30 17:52:00,49.0,45.0,30.45,SW,217,0.0,-999.0,87,-99.99,,,-99.99,,2013-01-31 01:52:00,
2013-01-30 18:01:00,49.0,46.0,30.45,SW,217,0.0,-999.0,88,-99.99,,,-99.99,,2013-01-31 02:01:00,
2013-01-30 18:11:00,49.0,46.0,30.45,SW,217,0.0,-999.0,88,-99.99,,,-99.99,,2013-01-31 02:11:00,
2013-01-30 18:21:00,49.0,46.0,30.45,SW,218,0.0,-999.0,89,-99.99,,,-99.99,,2013-01-31 02:21:00,
2013-01-30 18:31:00,49.0,46.0,30.45,SW,218,0.0,-999.0,89,-99.99,,,-99.99,,2013-01-31 02:31:00,
2013-01-30 18:41:00,49.0,46.0,30.45,SW,218,0.0,-999.0,89,-99.99,,,-99.99,,2013-01-31 02:41:00,
2013-01-30 18:52:00,49.0,46.0,30.45,SW,218,0.0,-999.0,89,-99.99,,,-99.99,,2013-01-31 02:52:00,
2013-01-30 19:01:00,48.0,45.0,30.44,SSW,208,0.0,-999.0,90,-99.99,,,-99.99,,2013-01-31 03:01:00,
2013-01-30 19:11:00,48.0,45.0,30.44,SSW,208,0.0,-999.0,90,-99.99,,,-99.99,,2013-01-31 03:11:00,
2013-01-30 19:21:00,47.0,45.0,30.44,SSW,208,0.0,-999.0,92,-99.99,,,-99.99,,2013-01-31 03:21:00,
2013-01-30 19:32:00,47.0,45.0,30.44,SSW,208,0.0,-999.0,93,-99.99,,,-99.99,,2013-01-31 03:32:00,
2013-01-30 19:41:00,47.0,45.0,30.44,SSW,208,0.0,-999.0,93,-99.99,,,-99.99,,2013-01-31 03:41:00,
2013-01-30 19:51:00,47.0,45.0,30.44,SSW,208,0.0,-999.0,94,-99.99,,,-99.99,,2013-01-31 03:51:00,
2013-01-30 19:52:00,47.0,45.0,30.44,SSW,208,0.0,-999.0,93,-99.99,,,-99.99,,2013-01-31 03:52:00,
2013-01-30 20:02:00,47.0,45.0,30.44,SSW,208,0.0,-999.0,94,-99.99,,,-99.99,,2013-01-31 04:02:00,
2013-01-30 20:11:00,47.0,45.0,30.44,SSW,208,0.0,-999.0,94,-99.99,,,-99.99,,2013-01-31 04:11:00,
2013-01-30 20:22:00,47.0,45.0,30.44,SSW,208,0.0,-999.0,94,-99.99,,,-99.99,,2013-01-31 04:22:00,
2013-01-30 20:31:00,47.0,45.0,30.44,SSW,208,0.0,-999.0,94,-99.99,,,-99.99,,2013-01-31 04:31:00,
2013-01-30 20:41:00,47.0,45.0,30.44,SSW,208,0.0,-999.0,94,-99.99,,,-99.99,,2013-01-31 04:41:00,
2013-01-30 21:03:00,46.0,45.0,30.43,West,279,0.0,-999.0,95,-99.99,,,-99.99,,2013-01-31 05:03:00,
2013-01-30 21:11:00,46.0,45.0,30.43,West,279,0.0,-999.0,95,-99.99,,,-99.99,,2013-01-31 05:11:00,
2013-01-30 21:22:00,46.0,45.0,30.44,West,268,0.0,-999.0,95,-99.99,,,-99.99,,2013-01-31 05:22:00,
2013-01-30 21:31:00,46.0,45.0,30.44,West,268,0.0,-999.0,95,-99.99,,,-99.99,,2013-01-31 05:31:00,
2013-01-30 21:41:00,46.0,45.0,30.44,West,274,0.0,-999.0,95,-99.99,,,-99.99,,2013-01-31 05:41:00,
2013-01-30 21:52:00,46.0,45.0,30.44,West,274,0.0,-999.0,95,-99.99,,,-99.99,,2013-01-31 05:52:00,
2013-01-30 22:01:00,46.0,45.0,30.44,West,274,0.0,-999.0,95,-99.99,,,-99.99,,2013-01-31 06:01:00,
2013-01-30 22:10:00,46.0,45.0,30.44,West,274,0.0,-999.0,95,-99.99,,,-99.99,,2013-01-31 06:10:00,